This demonstration page uses our WeatherBlox Daily Observations layout. Learn more.

40.92945, -100.16068

Hourly Observations for April 26, 2017

Temp ( °F °C ) Dew Point ( °F °C ) Humidity (%) Winds ( mph kmh ) Pressure ( in mb ) Visibility ( mi km ) Precip ( " mm )
12:15 am 00:15 Cloudy 36 2.2 31 -0.5 83 83 N 15 24 29.8 1009 10 16.0934 0 0
12:35 am 00:35 Cloudy 36 2 31 -0.5 84 84 NNW 17 28 29.8 1009 10 16.0934 0 0
12:55 am 00:55 Cloudy 35 1.8 31 -0.7 84 84 NNW 16 26 29.8 1009 10 16.0934 0 0
1:15 am 01:15 Cloudy 35 1.8 31 -0.7 84 84 NNW 18 30 29.83 1010 10 16.0934 0 0
1:35 am 01:35 Cloudy 35 1.8 30 -1 82 82 NNW 22 35 29.83 1010 10 16.0934 0 0
1:55 am 01:55 Cloudy 35 1.7 30 -1.1 82 82 NNW 22 35 29.83 1010 10 16.0934 0 0
2:15 am 02:15 Cloudy 35 1.6 30 -1.2 82 82 NNW 18 30 29.8 1009 10 16.0934 0 0
2:35 am 02:35 Cloudy 35 1.5 29 -1.6 80 80 NNW 23 37 29.8 1009 10 16.0934 0 0
2:55 am 02:55 Cloudy 34 1.2 29 -1.6 82 82 NNW 20 31 29.8 1009 10 16.0934 0 0
3:15 am 03:15 Cloudy 34 1 29 -1.7 82 82 NNW 21 33 29.83 1010 10 16.0934 0 0
3:35 am 03:35 Cloudy 34 1 28 -2.3 79 79 NNW 22 35 29.83 1010 10 16.0934 0 0
3:55 am 03:55 Cloudy 34 1 28 -2.5 78 78 NNW 20 31 29.85 1011 10 16.0934 0 0
4:15 am 04:15 Cloudy 34 1 28 -2.4 78 78 NNW 21 33 29.85 1011 10 16.0934 0 0
4:35 am 04:35 Cloudy 33 0.8 28 -2.3 80 80 NNW 18 30 29.85 1011 10 16.0934 0 0
4:55 am 04:55 Cloudy 33 0.7 28 -2.2 81 81 NNW 17 28 29.85 1011 10 16.0934 0 0
5:15 am 05:15 Cloudy 33 0.7 27 -2.6 79 79 NNW 21 33 29.85 1011 10 16.0934 0 0
5:35 am 05:35 Cloudy 33 0.7 28 -2.4 80 80 N 15 24 29.85 1011 10 16.0934 0 0
5:55 am 05:55 Cloudy 33 0.6 28 -2.2 82 82 NNW 14 22 29.85 1011 10 16.0934 0 0
6:15 am 06:15 Cloudy 33 0.6 28 -2.3 81 81 NNW 14 22 29.85 1011 10 16.0934 0 0
6:35 am 06:35 Cloudy 33 0.7 27 -2.6 79 79 NNW 16 26 29.85 1011 10 16.0934 0 0
6:55 am 06:55 Cloudy 33 0.7 27 -2.8 78 78 NNW 16 26 29.85 1011 10 16.0934 0 0
7:15 am 07:15 Cloudy 33 0.8 27 -2.6 78 78 NNW 14 22 29.85 1011 10 16.0934 0 0
7:35 am 07:35 Cloudy 34 1 28 -2.3 79 79 NNW 12 19 29.85 1011 10 16.0934 0 0
7:55 am 07:55 Cloudy 34 1 27 -2.6 77 77 NNW 18 30 29.85 1011 10 16.0934 0 0
8:15 am 08:15 Cloudy 34 1.1 28 -2.2 79 79 NNW 16 26 29.85 1011 10 16.0934 0 0
8:35 am 08:35 Cloudy 35 1.6 28 -2.3 76 76 NNW 22 35 29.83 1010 10 16.0934 0 0
8:55 am 08:55 Cloudy 35 1.7 28 -2.5 74 74 NNW 21 33 29.83 1010 10 16.0934 0 0
9:15 am 09:15 Cloudy 36 2.2 29 -1.9 75 75 NNW 22 35 29.83 1010 10 16.0934 0 0
9:35 am 09:35 Cloudy 37 2.5 29 -1.9 73 73 NNW 23 37 29.83 1010 10 16.0934 0 0
9:55 am 09:55 Cloudy 37 2.5 29 -1.7 74 74 N 20 31 29.83 1010 10 16.0934 0 0
10:15 am 10:15 Cloudy 38 3.1 29 -1.5 72 72 NNW 20 31 29.83 1010 10 16.0934 0 0
10:35 am 10:35 Cloudy 39 4 31 -0.6 72 72 NNW 22 35 29.83 1010 10 16.0934 0 0
10:55 am 10:55 Cloudy 39 3.7 30 -0.9 72 72 NNW 22 35 29.83 1010 10 16.0934 0 0
11:15 am 11:15 Cloudy 39 4 31 -0.8 71 71 NNW 18 30 29.83 1010 10 16.0934 0 0
11:35 am 11:35 Cloudy 40 4.4 31 -0.3 72 72 NNW 21 33 29.83 1010 10 16.0934 0 0
11:55 am 11:55 Cloudy 40 4.5 31 -0.6 70 70 NNW 21 33 29.8 1009 10 16.0934 0 0
12:15 pm 12:15 Cloudy 41 4.8 31 -0.5 69 69 NNW 21 33 29.8 1009 10 16.0934 0 0
12:35 pm 12:35 Cloudy 42 5.3 32 -0.1 68 68 NNW 18 30 29.8 1009 10 16.0934 0 0
12:55 pm 12:55 Cloudy 42 5.8 32 0 67 67 NNW 18 30 29.8 1009 10 16.0934 0 0
1:15 pm 13:15 Cloudy 43 6.2 32 0.1 65 65 NNW 17 28 29.77 1008 10 16.0934 0 0
1:35 pm 13:35 Mostly Cloudy 45 7 32 0.2 62 62 N 16 26 29.77 1008 10 16.0934 0 0
1:55 pm 13:55 Mostly Cloudy 46 7.9 32 0.2 59 59 N 20 31 29.74 1007 10 16.0934 0 0
2:15 pm 14:15 Mostly Cloudy 46 7.9 33 0.3 59 59 N 17 28 29.74 1007 10 16.0934 0 0
2:35 pm 14:35 Mostly Cloudy 47 8.5 33 0.4 57 57 N 17 28 29.74 1007 10 16.0934 0 0
2:55 pm 14:55 Partly Cloudy 48 8.9 33 0.4 56 56 N 15 24 29.74 1007 10 16.0934 0 0
3:15 pm 15:15 Mostly Cloudy 49 9.3 33 0.7 55 55 NNW 17 28 29.74 1007 10 16.0934 0 0
3:35 pm 15:35 Partly Cloudy 48 8.9 33 0.4 56 56 N 14 22 29.74 1007 10 16.0934 0 0
3:55 pm 15:55 Mostly Cloudy 49 9.3 33 0.5 54 54 N 13 20 29.74 1007 10 16.0934 0 0
4:15 pm 16:15 Mostly Cloudy 49 9.5 33 0.4 53 53 N 12 19 29.74 1007 10 16.0934 0 0
4:35 pm 16:35 Partly Cloudy 50 9.8 33 0.5 53 53 N 8 13 29.74 1007 10 16.0934 0 0
4:55 pm 16:55 Mostly Cloudy 48 9.1 32 0.1 54 54 NNW 15 24 29.74 1007 10 16.0934 0 0
5:15 pm 17:15 Partly Cloudy 50 10 33 0.3 51 51 N 12 19 29.71 1006 10 16.0934 0 0
5:35 pm 17:35 Sunny 50 10.1 33 0.3 51 51 NNW 12 19 29.71 1006 10 16.0934 0 0
5:55 pm 17:55 Sunny 50 10 32 0.2 51 51 N 14 22 29.71 1006 10 16.0934 0 0
6:15 pm 18:15 Sunny 49 9.7 32 0 51 51 N 10 17 29.71 1006 10 16.0934 0 0
6:35 pm 18:35 Sunny 49 9.7 32 0 51 51 N 9 15 29.71 1006 10 16.0934 0 0
6:55 pm 18:55 Sunny 49 9.5 32 -0.1 51 51 N 10 17 29.71 1006 10 16.0934 0 0
7:15 pm 19:15 Sunny 48 9.1 31 -0.3 52 52 N 10 17 29.71 1006 10 16.0934 0 0
7:35 pm 19:35 Sunny 48 8.7 31 -0.6 52 52 N 10 17 29.71 1006 10 16.0934 0 0
7:55 pm 19:55 Sunny 47 8.1 31 -0.4 55 55 N 10 17 29.71 1006 10 16.0934 0 0
8:15 pm 20:15 Sunny 45 7.1 31 -0.5 59 59 N 9 15 29.71 1006 10 16.0934 0 0
8:35 pm 20:35 Clear 42 5.5 31 -0.6 65 65 N 7 11 29.74 1007 10 16.0934 0 0
8:55 pm 20:55 Clear 39 4.1 30 -0.9 70 70 N 7 11 29.74 1007 10 16.0934 0 0
9:15 pm 21:15 Clear 38 3.6 30 -1.3 71 71 NNE 7 11 29.77 1008 10 16.0934 0 0
9:35 pm 21:35 Clear 37 2.6 30 -1.1 77 77 NNE 6 9 29.77 1008 10 16.0934 0 0
9:55 pm 21:55 Clear 37 2.5 29 -1.5 75 75 N 6 9 29.77 1008 10 16.0934 0 0
10:15 pm 22:15 Clear 35 1.7 29 -1.7 78 78 N 6 9 29.8 1009 10 16.0934 0 0
10:35 pm 22:35 Clear 34 1.3 28 -2.1 78 78 N 6 9 29.8 1009 10 16.0934 0 0
10:55 pm 22:55 Clear 34 1 28 -2 81 81 N 3 6 29.83 1010 10 16.0934 0 0
11:15 pm 23:15 Clear 34 1.1 28 -2 80 80 Calm 29.83 1010 10 16.0934 0 0
11:35 pm 23:35 Clear 34 1.2 28 -2 79 79 N 5 7 29.8 1009 10 16.0934 0 0
11:55 pm 23:55 Clear 31 -0.3 27 -3 82 82 NNE 5 7 29.83 1010 10 16.0934 0 0

Powered by AerisWeather